Temp
2 2 2 2 2 2 2 3 3 3 3 2 2 3 2 3 3 3 2 3 3 3 3 4 4 5 4 5 5 5 6 6 6 6 6 6 6 6 6 6 7 7 6 6 6 6 7
3 2 2 1 1 2 2 2 2 2 2 2 3 2 2 2 2 3 3 3 3 3 3 3 4 4 4 4 4 5 5 5 6 6 6 6 6 6 6 6 6 6 6 6 6 6 6
2 2 2 1 2 1 1 1 2 2 2 2 2 2 2 2 2 2 2 2 2 4 3 3 4 4 4 4 4 4 5 5 5 5 5 5 6 6 6 6 6 6 7 6 6 6 5
1 1 2 1 1 1 2 2 1 1 1 2 2 1 2 1 2 2 2 2 2 3 3 3 3 3 4 4 4 4 4 4 4 4 5 5 5 5 5 5 5 6 6 6 5 5 4
1 1 2 1 1 1 1 1 1 0 1 1 1 1 1 1 2 2 2 2 2 2 3 3 3 3 4 4 4 3 4 4 4 4 4 4 5 5 5 5 5 5 5 4 5 4 4
0 1 -0 -0 0 1 1 0 0 0 0 0 0 0 1 0 1 1 1 1 2 2 2 2 2 3 4 3 3 3 3 3 3 4 4 4 4 4 4 4 3 3 2 2 3 3 3
0 -0 -1 -0 -0 -0 0 0 -0 -0 0 0 0 1 1 0 1 1 1 1 1 1 2 2 2 2 2 3 3 3 3 3 4 3 3 3 3 3 3 3 2 2 1 1 3 3 2
0 -1 -2 -2 -1 -0 -1 -0 -1 -0 -1 -1 -0 0 -1 -0 0 0 -0 0 1 0 2 2 2 3 3 3 4 4 4 2 3 3 2 2 2 2 2 2 1 1 1 2 1 2 1
-0 0 0 -0 -1 -1 -2 0 0 0 -0 -1 -1 -1 -1 -2 -0 0 0 0 0 -0 -0 3 3 4 4 4 4 4 3 2 2 1 1 1 1 2 2 1 1 1 1 1 1 1 1
-1 -1 -0 -0 -0 -0 -0 -0 1 1 0 -1 -1 -1 -2 -3 -2 1 0 0 -0 -1 -1 2 3 2 3 2 2 2 2 2 1 1 1 1 1 1 1 1 -0 1 1 0 0 -0 0
-2 -2 -1 -1 -1 -0 -0 -0 -0 0 0 -1 -1 -1 -1 -1 -1 -0 -0 -1 -1 -1 -1 1 1 2 2 2 1 1 1 1 0 0 1 1 1 1 1 -0 0 0 0 -0 -0 -1 -1
-3 -2 -2 -2 -2 -1 -1 -1 -1 -0 -0 -1 -1 -2 -1 -1 -1 -1 -1 -2 -2 -2 -2 0 0 0 1 1 0 0 0 0 0 0 0 0 0 0 -0 -0 -0 -0 0 0 -0 -1 -1
-4 -3 -3 -3 -2 -2 -2 -1 -1 -1 -1 -1 -1 -1 -1 -1 -2 -2 -2 -2 -3 -3 0 -0 -0 -0 -0 -0 -0 -0 -0 -0 -0 -1 -1 -0 -0 -0 -0 -0 -0 -1 -0 -0 -1 -1 0
-6 -4 -3 -3 -3 -3 -2 -2 -2 -2 -2 -2 -2 -2 -2 -2 -1 -3 -3 -4 -4 -2 -0 -1 -1 -1 -1 -1 -1 -1 -1 -1 -1 -1 -1 -1 -1 -1 -1 -1 -1 -1 -1 -1 -2 -1 -0
-8 -6 -4 -4 -3 -3 -3 -3 -3 -3 -2 -3 -3 -3 -2 -3 -4 -4 -4 -4 -3 -2 -1 -1 -1 -1 -1 -1 -1 -1 -1 -1 -1 -1 -2 -2 -1 -1 -1 -1 -2 -2 -2 -2 -2 -2 -3
-8 -8 -7 -5 -4 -4 -4 -4 -4 -3 -3 -4 -3 -3 -3 -4 -5 -5 -5 -5 -4 -3 -2 -2 -2 -1 -1 -1 -1 -2 -2 -1 -2 -1 -1 -2 -2 -2 -2 -2 -2 -3 -3 -3 -3 -3 -2
-8 -8 -8 -8 -7 -4 -4 -4 -4 -4 -4 -4 -4 -6 -4 -5 -6 -6 -5 -5 -5 -4 -3 -3 -3 -2 -2 -2 -2 -2 -2 -2 -2 -2 -2 -3 -3 -3 -3 -3 -3 -3 -3 -3 -3 -3 -2
-8 -8 -8 -8 -9 -8 -6 -5 -5 -5 -5 -5 -5 -5 -5 -5 -5 -5 -6 -6 -5 -5 -4 -3 -3 -3 -3 -2 -3 -2 -2 -2 -3 -3 -3 -3 -4 -4 -4 -3 -3 -3 -4 -4 -4 -4 -5
-8 -8 -8 -8 -9 -9 -9 -6 -6 -6 -5 -5 -5 -5 -6 -6 -5 -5 -5 -6 -6 -6 -5 -4 -4 -4 -3 -3 -3 -3 -4 -3 -3 -3 -4 -4 -4 -5 -4 -4 -4 -5 -5 -5 -5 -5 -6
-9 -9 -8 -8 -9 -9 -9 -9 -7 -6 -6 -6 -6 -6 -6 -6 -6 -6 -7 -6 -6 -5 -5 -5 -5 -4 -4 -4 -3 -4 -4 -5 -5 -5 -5 -5 -6 -5 -5 -5 -5 -5 -6 -6 -6 -6 -5
-9 -9 -9 -9 -9 -10 -10 -10 -10 -8 -7 -7 -7 -6 -5 -5 -5 -6 -6 -6 -5 -5 -6 -5 -5 -5 -4 -4 -4 -4 -5 -5 -5 -5 -6 -6 -6 -6 -6 -6 -6 -6 -6 -6 -6 -5 -6
-9 -9 -9 -9 -9 -9 -10 -10 -10 -10 -9 -9 -7 -7 -6 -6 -6 -6 -6 -5 -6 -6 -6 -5 -5 -4 -5 -5 -4 -5 -6 -6 -6 -6 -6 -6 -6 -6 -6 -6 -6 -6 -6 -6 -5 -5 -5
-10 -9 -9 -9 -9 -10 -10 -10 -10 -10 -10 -9 -8 -7 -7 -7 -6 -6 -6 -6 -6 -7 -6 -6 -6 -6 -6 -6 -6 -6 -6 -5 -6 -7 -7 -7 -7 -7 -7 -7 -7 -7 -5 -5 -5 -5 -5
-10 -10 -10 -9 -9 -10 -10 -10 -10 -10 -10 -9 -9 -8 -8 -8 -7 -6 -6 -6 -6 -7 -7 -6 -6 -6 -6 -6 -6 -6 -6 -6 -6 -6 -7 -7 -7 -7 -7 -7 -6 -5 -5 -5 -5 -5 -5
-10 -10 -9 -9 -10 -10 -9 -10 -10 -10 -10 -10 -9 -9 -9 -9 -8 -8 -7 -7 -7 -7 -7 -7 -7 -7 -7 -7 -7 -7 -6 -6 -6 -6 -6 -6 -7 -7 -7 -6 -6 -6 -5 -4 -5 -5 -4
-10 -10 -10 -10 -10 -10 -10 -10 -11 -11 -10 -10 -10 -9 -9 -9 -9 -9 -9 -8 -8 -8 -8 -7 -7 -8 -8 -7 -8 -9 -7 -7 -7 -6 -6 -6 -7 -7 -7 -7 -6 -5 -5 -5 -6 -6 -5
-10 -11 -10 -10 -11 -10 -10 -10 -10 -10 -11 -10 -10 -9 -10 -9 -9 -9 -9 -9 -8 -8 -8 -8 -7 -8 -8 -8 -9 -9 -8 -8 -7 -7 -7 -6 -7 -7 -7 -8 -7 -6 -6 -7 -7 -5 -6
-11 -11 -11 -11 -11 -11 -11 -11 -10 -10 -11 -11 -10 -11 -10 -10 -10 -10 -10 -9 -9 -9 -9 -9 -9 -9 -9 -9 -9 -9 -8 -8 -8 -7 -7 -7 -7 -7 -8 -8 -7 -6 -6 -7 -7 -7 -7
-12 -12 -12 -12 -12 -12 -12 -11 -11 -10 -11 -11 -11 -11 -11 -11 -11 -10 -10 -10 -9 -9 -10 -10 -9 -9 -9 -8 -8 -8 -8 -8 -7 -8 -7 -7 -6 -6 -7 -6 -6 -6 -6 -6 -7 -7 -7
Height
3129 3131 3134 3135 3137 3138 3139 3141 3142 3144 3145 3146 3147 3147 3147 3147 3147 3147 3147 3148 3147 3145 3145 3146 3145 3144 3145 3145 3145 3143 3143 3142 3141 3141 3140 3140 3140 3139 3138 3137 3137 3136 3137 3137 3136 3136 3135
3122 3124 3127 3129 3130 3131 3132 3134 3136 3138 3139 3141 3141 3142 3143 3142 3142 3142 3143 3144 3143 3143 3141 3142 3143 3142 3142 3143 3141 3140 3140 3140 3140 3139 3139 3139 3138 3137 3136 3135 3135 3135 3134 3134 3133 3132 3132
3113 3116 3118 3121 3122 3123 3125 3126 3128 3131 3132 3134 3136 3137 3137 3137 3137 3137 3138 3139 3138 3139 3138 3138 3139 3139 3140 3140 3139 3138 3138 3138 3138 3137 3137 3137 3136 3135 3133 3132 3132 3132 3132 3130 3129 3128 3128
3103 3107 3108 3112 3112 3113 3114 3118 3119 3123 3125 3127 3130 3131 3132 3131 3133 3131 3132 3132 3133 3134 3134 3133 3135 3135 3136 3136 3136 3136 3136 3136 3135 3134 3135 3134 3133 3132 3130 3130 3128 3128 3127 3127 3127 3126 3125
3094 3098 3098 3102 3103 3104 3108 3110 3113 3115 3117 3119 3121 3124 3125 3125 3126 3126 3127 3127 3128 3129 3129 3130 3130 3131 3132 3131 3132 3133 3134 3134 3133 3132 3131 3131 3130 3129 3127 3126 3125 3122 3122 3123 3124 3123 3122
3083 3087 3088 3090 3092 3097 3099 3103 3105 3108 3109 3111 3113 3115 3117 3119 3120 3120 3121 3121 3122 3123 3125 3125 3126 3129 3128 3129 3130 3130 3130 3130 3130 3127 3127 3127 3127 3125 3123 3123 3122 3119 3119 3120 3121 3122 3118
3071 3073 3077 3081 3084 3088 3091 3095 3097 3100 3101 3103 3106 3108 3110 3111 3113 3115 3116 3118 3120 3119 3119 3120 3122 3123 3123 3125 3126 3125 3125 3125 3125 3124 3122 3122 3123 3120 3119 3119 3119 3117 3117 3116 3115 3118 3112
3061 3063 3065 3068 3074 3078 3082 3084 3087 3091 3093 3095 3096 3098 3101 3104 3107 3109 3111 3112 3114 3114 3112 3114 3115 3115 3115 3116 3118 3118 3119 3120 3120 3119 3117 3119 3118 3117 3116 3115 3115 3114 3113 3112 3110 3112 3110
3051 3056 3059 3061 3066 3070 3074 3078 3080 3082 3086 3087 3090 3090 3091 3097 3099 3102 3105 3108 3109 3110 3106 3106 3107 3108 3109 3109 3109 3112 3112 3113 3115 3115 3114 3115 3115 3114 3114 3113 3112 3112 3109 3109 3109 3108 3106
3040 3045 3049 3052 3055 3062 3066 3069 3071 3073 3077 3080 3083 3084 3086 3087 3093 3096 3100 3103 3105 3107 3105 3100 3099 3099 3101 3102 3104 3105 3107 3110 3111 3112 3112 3112 3111 3111 3110 3110 3109 3108 3107 3107 3106 3105 3105
3031 3034 3038 3042 3047 3050 3056 3059 3063 3065 3071 3072 3076 3077 3080 3084 3088 3091 3097 3098 3100 3105 3107 3098 3096 3096 3097 3101 3103 3105 3106 3107 3109 3110 3111 3111 3109 3108 3107 3107 3106 3106 3104 3104 3103 3102 3101
3021 3024 3029 3032 3038 3042 3047 3050 3054 3058 3061 3065 3068 3071 3073 3078 3082 3086 3090 3093 3098 3103 3096 3095 3094 3095 3097 3098 3101 3102 3104 3106 3107 3107 3107 3107 3107 3106 3104 3104 3103 3103 3102 3101 3099 3099 3098
3010 3014 3019 3024 3028 3033 3038 3042 3046 3050 3053 3058 3061 3064 3066 3071 3076 3080 3085 3088 3095 3092 3092 3091 3091 3094 3096 3097 3099 3101 3103 3104 3105 3105 3104 3105 3104 3103 3103 3102 3102 3102 3101 3100 3098 3097 3094
2999 3004 3008 3013 3019 3023 3029 3033 3037 3043 3046 3050 3054 3057 3061 3066 3071 3075 3079 3084 3085 3081 3085 3087 3089 3091 3093 3095 3097 3099 3101 3102 3102 3102 3102 3102 3103 3102 3102 3102 3101 3100 3102 3102 3100 3096 3093
2991 2995 2999 3005 3010 3015 3020 3024 3029 3034 3039 3043 3047 3051 3055 3061 3065 3071 3076 3076 3073 3075 3080 3083 3087 3088 3090 3092 3094 3096 3098 3099 3099 3100 3101 3100 3100 3099 3099 3099 3101 3100 3100 3101 3099 3095 3091
2983 2987 2990 2994 3001 3006 3011 3017 3023 3027 3031 3036 3040 3046 3049 3054 3060 3065 3071 3068 3068 3071 3075 3079 3082 3084 3086 3088 3091 3093 3095 3096 3096 3098 3097 3097 3097 3097 3097 3097 3098 3097 3099 3097 3097 3093 3084
2973 2978 2983 2987 2991 2996 3002 3009 3015 3020 3024 3030 3035 3039 3043 3048 3056 3061 3060 3064 3065 3069 3073 3077 3078 3081 3083 3085 3089 3091 3092 3094 3094 3094 3094 3093 3094 3095 3094 3093 3092 3092 3091 3092 3091 3089 3083
2962 2969 2975 2980 2985 2989 2994 3001 3008 3013 3017 3023 3028 3032 3037 3043 3049 3050 3052 3056 3061 3065 3070 3073 3076 3078 3081 3083 3086 3088 3089 3090 3091 3090 3091 3091 3089 3088 3089 3089 3088 3086 3086 3088 3087 3085 3082
2952 2959 2966 2972 2978 2982 2987 2993 2999 3006 3011 3017 3023 3027 3033 3039 3040 3043 3047 3052 3055 3061 3067 3070 3072 3075 3077 3081 3084 3082 3083 3086 3087 3088 3088 3087 3085 3084 3084 3086 3085 3085 3085 3086 3085 3082 3076
2941 2949 2956 2962 2968 2974 2981 2987 2993 2999 3005 3012 3018 3022 3028 3031 3034 3038 3043 3048 3051 3056 3061 3065 3068 3071 3074 3076 3078 3078 3079 3081 3082 3083 3083 3082 3082 3083 3082 3082 3083 3081 3081 3082 3080 3075 3072
2931 2939 2947 2953 2960 2967 2974 2981 2988 2993 2998 3005 3010 3013 3017 3022 3025 3033 3040 3044 3048 3050 3055 3060 3064 3067 3070 3072 3073 3073 3075 3076 3077 3076 3077 3079 3077 3077 3076 3077 3076 3074 3073 3072 3070 3065 3066
2919 2926 2937 2945 2953 2960 2968 2974 2981 2987 2994 2999 3005 3008 3013 3018 3023 3029 3033 3036 3041 3046 3051 3055 3059 3062 3065 3066 3068 3068 3069 3070 3070 3071 3072 3073 3072 3071 3069 3071 3069 3064 3064 3060 3055 3052 3050
2909 2919 2926 2935 2945 2952 2960 2968 2975 2981 2986 2991 2996 3003 3008 3013 3018 3024 3027 3032 3035 3042 3047 3051 3055 3057 3060 3061 3060 3061 3063 3064 3065 3065 3067 3069 3069 3068 3063 3065 3062 3056 3051 3050 3047 3045 3045
2900 2910 2918 2926 2936 2945 2952 2961 2968 2974 2981 2985 2991 2998 3004 3008 3012 3017 3022 3027 3032 3038 3044 3046 3049 3051 3054 3055 3056 3056 3057 3058 3058 3059 3062 3062 3064 3066 3060 3061 3056 3048 3046 3044 3040 3038 3040
2890 2901 2910 2918 2928 2939 2947 2954 2962 2968 2975 2981 2990 2994 2997 3004 3009 3015 3018 3024 3029 3033 3036 3040 3044 3047 3048 3050 3051 3051 3051 3052 3050 3052 3054 3056 3058 3060 3057 3055 3047 3041 3040 3039 3034 3032 3035
2881 2892 2904 2914 2921 2931 2939 2948 2956 2962 2970 2977 2983 2989 2995 2999 3004 3011 3015 3021 3025 3028 3032 3036 3040 3041 3042 3045 3046 3047 3048 3047 3049 3049 3049 3051 3054 3056 3053 3052 3043 3037 3037 3035 3032 3029 3029
2873 2885 2897 2907 2916 2924 2934 2943 2952 2960 2966 2972 2978 2984 2990 2995 3001 3005 3010 3015 3020 3024 3027 3031 3035 3036 3038 3039 3041 3043 3044 3045 3045 3045 3047 3048 3048 3046 3047 3045 3037 3032 3031 3031 3032 3031 3025
2868 2880 2891 2901 2910 2919 2931 2940 2947 2956 2964 2969 2974 2981 2985 2990 2996 3001 3004 3009 3013 3017 3022 3028 3030 3030 3032 3036 3037 3038 3038 3038 3039 3041 3042 3042 3042 3041 3040 3040 3034 3028 3028 3028 3026 3024 3022
2872 2879 2887 2898 2908 2916 2925 2933 2942 2951 2959 2964 2970 2977 2983 2987 2991 2996 3001 3006 3010 3014 3017 3021 3025 3025 3028 3030 3032 3033 3032 3033 3034 3035 3036 3035 3035 3035 3034 3029 3027 3025 3024 3022 3018 3016 3017
Wind_Speed
36 36 35 34 33 35 35 33 32 32 31 29 28 26 26 25 22 19 18 21 24 20 19 17 13 11 8 7 9 9 9 10 10 9 6 5 6 6 6 6 8 6 7 7 7 10 15
40 40 40 40 41 41 37 36 32 32 32 31 27 29 31 29 28 26 23 23 26 22 18 18 17 15 12 9 7 9 10 11 9 7 7 9 10 10 7 9 9 8 11 11 11 12 12
46 44 45 46 44 44 45 41 41 37 35 37 35 35 30 33 31 28 25 27 25 25 22 20 21 19 16 12 11 9 9 7 8 9 11 13 14 13 13 13 10 12 12 14 12 11 9
42 48 46 47 46 46 39 44 46 43 42 38 35 35 32 28 31 29 29 30 27 26 24 24 23 22 18 15 12 9 7 7 8 11 14 15 14 14 15 15 14 13 11 5 7 9 8
48 48 47 43 38 38 40 40 43 40 39 40 39 39 36 35 33 33 32 32 29 27 24 24 21 19 16 10 6 7 9 12 16 18 17 17 17 16 16 16 15 9 8 9 9 12 13
42 43 35 39 39 41 42 43 41 38 39 33 35 37 37 34 35 35 35 34 28 26 23 22 21 20 12 9 7 10 17 20 19 19 19 17 17 18 15 14 9 11 13 14 15 13 15
50 52 53 52 48 40 46 48 40 37 39 38 36 37 35 36 35 34 37 29 26 24 24 24 17 19 18 20 22 22 24 24 23 24 23 21 18 15 15 12 12 13 14 19 20 15 25
55 52 51 50 48 50 39 37 38 31 34 35 33 37 37 35 33 34 31 28 24 24 27 25 23 23 23 24 26 26 25 26 26 25 23 21 18 9 9 14 15 16 17 19 21 12 19
49 49 47 42 36 33 33 35 36 36 35 32 34 40 41 35 30 32 28 26 23 22 29 29 25 25 22 23 24 20 24 24 21 19 17 13 9 12 7 7 10 13 17 15 15 15 18
46 45 44 44 40 38 38 36 37 36 37 34 30 26 28 32 29 30 27 24 21 20 19 20 20 10 13 14 12 10 11 10 8 7 6 7 3 5 10 10 11 15 14 15 18 14 6
42 42 42 42 41 41 41 40 39 37 36 36 33 33 31 30 31 29 24 20 15 11 5 5 7 7 9 9 6 8 6 4 5 7 5 4 8 9 10 5 12 16 11 12 13 11 15
42 40 40 40 39 39 38 38 37 36 36 34 34 34 36 30 29 25 20 16 12 8 8 6 8 10 12 11 11 7 6 5 4 5 6 6 7 9 8 4 3 9 10 13 15 15 7
42 41 39 39 38 37 36 35 34 34 33 31 28 29 32 30 27 23 17 16 12 10 6 9 12 14 15 12 10 9 6 3 4 4 5 7 5 2 2 2 4 14 11 4 2 1 4
40 43 42 41 39 38 37 34 33 33 32 29 27 26 26 28 26 20 19 22 13 9 17 8 11 15 15 12 11 9 7 7 7 7 7 3 4 5 7 6 9 7 6 2 4 4 12
37 40 43 42 40 39 37 35 34 33 32 29 27 27 27 27 29 27 27 28 13 19 16 13 13 17 17 15 10 8 8 9 7 5 4 3 5 6 12 8 3 7 4 5 9 16 8
38 37 39 42 41 39 37 36 34 33 31 31 30 29 27 24 23 24 32 27 23 13 14 19 17 15 16 16 12 9 7 6 5 7 8 8 8 9 6 10 7 12 13 11 7 4 6
41 36 36 36 38 37 35 35 34 33 31 30 30 26 32 28 25 30 38 33 27 17 14 16 16 12 12 14 13 12 6 6 6 9 10 8 10 6 8 10 21 23 14 9 9 10 4
41 41 39 36 33 31 32 32 31 33 32 32 33 34 26 29 36 39 41 37 34 25 16 13 13 16 13 14 13 11 10 9 6 10 9 11 9 13 15 17 17 15 10 5 6 4 6
48 43 41 40 37 32 30 32 31 31 32 32 33 34 28 37 37 35 41 35 30 25 24 20 19 17 15 15 10 11 10 6 7 7 6 7 6 6 8 5 6 1 7 9 12 17 18
49 50 51 38 40 35 34 30 30 32 34 33 34 33 31 32 37 39 37 27 33 30 27 23 21 20 17 15 15 8 8 7 8 10 13 12 11 11 13 12 18 24 20 15 18 17 22
53 52 55 47 41 39 36 35 29 31 35 36 35 28 30 30 37 38 32 32 33 32 27 23 25 24 21 17 17 18 16 15 17 18 17 11 17 16 18 17 20 24 26 27 29 34 29
49 44 49 46 45 37 35 36 35 32 34 35 36 31 36 30 22 31 29 31 30 24 24 22 23 20 18 23 19 17 14 17 16 13 11 13 14 15 23 21 24 28 29 34 35 37 41
44 50 46 49 47 41 39 35 34 35 35 38 43 42 36 37 37 32 32 34 32 27 23 19 18 17 19 19 20 19 20 22 22 16 12 16 14 14 19 14 20 25 15 15 19 21 22
54 46 45 44 42 41 36 31 38 37 37 40 38 37 38 26 30 37 33 27 25 24 22 18 16 19 21 21 20 20 22 24 24 24 20 23 20 19 20 14 10 11 12 28 30 31 20
54 53 41 39 44 44 40 39 38 39 39 39 31 36 37 32 31 23 20 21 20 16 20 21 18 15 16 17 17 14 16 21 22 20 18 18 21 18 11 16 24 26 15 14 7 13 18
44 45 47 44 42 43 37 37 37 40 40 39 42 13 29 30 36 27 26 24 18 14 14 14 15 16 19 17 14 7 7 7 3 3 4 12 20 24 11 8 8 16 18 17 18 28 18
41 39 47 40 35 31 39 36 34 33 35 39 42 42 26 18 19 19 21 23 22 21 19 13 14 17 18 16 15 14 10 9 7 8 7 9 13 23 24 14 16 23 18 18 12 15 13
40 36 34 30 25 26 29 31 36 36 33 38 33 35 44 38 29 10 21 14 18 21 19 12 13 14 16 16 11 11 11 11 12 15 14 12 10 12 9 10 11 6 9 10 11 17 20
27 30 32 31 27 25 24 28 33 35 39 29 30 26 29 38 31 28 26 16 21 13 13 16 15 10 13 12 12 9 11 10 13 11 10 13 17 15 14 14 20 26 27 30 35 25 26
Wind_Direction
255 256 256 257 257 259 261 263 266 267 268 269 271 271 278 279 276 276 283 292 299 297 277 279 280 283 287 289 299 294 309 318 322 324 318 311 316 322 336 334 330 326 326 320 284 264 266
260 261 263 261 262 260 261 263 263 265 268 266 268 268 274 275 272 279 269 292 296 293 280 273 278 281 285 295 292 293 304 306 308 306 305 316 322 327 326 325 322 315 316 314 297 291 281
259 261 262 263 263 266 264 267 259 264 264 273 273 269 274 267 269 269 272 278 287 287 275 274 277 282 289 287 284 292 294 289 292 296 307 313 317 322 320 323 312 311 309 304 297 297 290
255 263 262 262 257 258 249 260 263 265 266 268 268 266 270 262 273 263 273 275 281 279 276 278 278 279 292 283 282 291 264 269 283 293 302 304 305 306 309 310 307 308 307 282 272 284 282
249 256 246 241 237 244 248 255 259 261 263 265 268 267 264 260 266 271 270 275 276 270 273 274 274 279 290 283 249 253 256 279 293 295 291 293 295 299 301 299 299 288 276 268 265 258 253
235 235 248 244 252 252 251 247 249 261 262 264 266 264 261 263 261 264 272 275 269 265 267 269 272 278 269 248 229 258 281 283 287 287 290 290 294 301 297 297 288 286 289 280 273 266 256
250 245 253 257 266 260 257 253 261 262 262 264 261 261 252 249 258 260 269 270 274 274 264 261 260 260 265 267 276 276 275 273 273 276 283 284 292 294 292 293 286 282 288 288 291 292 286
262 266 272 278 275 267 267 269 265 255 256 259 262 256 245 245 254 251 265 268 277 275 275 271 272 272 274 278 273 273 274 267 264 270 275 286 286 274 280 288 286 289 296 303 305 294 290
254 255 259 259 255 251 252 255 255 254 256 256 257 254 239 238 245 251 254 265 273 278 284 281 280 279 273 265 267 262 254 258 263 267 273 274 275 287 294 296 302 297 291 310 312 312 286
253 252 252 253 249 248 245 247 253 252 253 248 254 249 249 230 239 253 254 261 270 282 293 282 286 276 255 248 249 243 237 231 236 248 262 273 205 304 308 315 311 313 314 291 293 308 297
250 250 249 251 250 248 248 250 249 247 249 248 245 241 248 246 246 245 251 253 257 275 285 273 216 229 208 187 182 164 175 196 225 245 252 263 282 292 294 304 308 313 310 304 296 286 291
248 247 247 247 248 248 248 247 245 247 246 248 242 241 239 249 249 244 241 231 225 211 243 234 204 198 184 176 176 180 184 202 224 260 271 286 283 294 297 310 63 359 318 293 281 275 270
244 244 244 244 245 244 242 243 242 240 239 239 235 235 237 242 241 237 223 213 193 205 219 219 208 197 187 193 197 200 204 234 261 283 269 290 273 170 125 96 296 346 5 333 283 212 268
240 240 238 240 240 240 240 237 238 238 236 234 230 227 229 229 233 216 206 187 208 224 213 204 188 187 196 194 195 204 229 246 258 261 281 270 188 134 27 349 327 21 357 303 291 291 288
241 240 239 239 239 239 239 237 235 231 234 231 226 226 223 217 208 217 189 193 219 222 205 194 184 194 201 206 206 217 245 260 254 244 236 223 238 203 319 337 14 340 309 304 294 284 279
234 238 239 234 236 238 237 237 234 231 229 227 222 219 219 202 186 193 195 210 216 192 189 191 191 200 206 207 218 226 216 202 244 249 252 247 260 262 261 295 282 318 302 287 263 276 260
226 230 233 236 235 230 233 234 232 227 221 221 214 210 211 207 206 197 205 213 220 209 196 195 200 206 203 203 203 203 211 211 220 241 252 269 257 249 265 277 300 308 285 257 245 231 273
224 225 224 229 227 229 222 225 223 223 214 210 211 204 194 195 195 203 204 213 226 225 211 212 215 215 211 206 212 243 230 210 222 239 255 268 281 277 282 293 290 276 273 244 243 242 249
221 218 221 222 225 222 218 212 209 210 212 207 206 211 202 195 209 203 213 220 225 229 231 224 225 229 225 229 242 242 244 235 229 266 259 262 256 297 302 270 198 159 306 290 276 274 259
225 221 223 219 228 218 210 208 203 205 206 202 204 206 207 202 212 215 217 221 225 232 231 230 234 236 238 240 236 242 241 237 251 271 271 269 258 244 253 261 282 287 288 280 280 270 280
221 226 222 225 224 227 214 210 204 204 203 201 199 207 216 209 214 218 226 231 232 236 237 230 239 242 243 246 245 256 262 269 269 270 268 259 266 270 269 277 289 289 284 282 274 273 258
220 216 222 224 221 217 218 207 203 201 198 211 202 210 222 226 224 221 223 231 234 235 236 237 239 244 243 246 255 268 263 272 280 268 239 245 274 275 279 288 295 291 287 289 282 278 273
227 228 219 218 221 215 222 217 204 197 198 204 212 221 220 225 231 231 235 236 240 240 243 244 248 246 245 250 246 250 260 269 265 258 250 249 255 273 279 298 301 292 297 295 292 292 288
222 221 220 213 212 215 203 204 202 202 201 202 213 214 215 213 221 229 234 241 246 249 245 243 244 239 243 255 261 261 264 267 267 262 260 257 259 264 277 292 268 277 299 298 288 280 287
221 221 214 216 214 211 205 206 201 197 204 206 199 218 221 225 228 225 226 233 237 235 233 236 239 239 242 254 262 273 278 277 279 269 255 252 246 250 253 260 280 293 308 307 336 341 319
205 206 210 216 202 193 190 193 195 200 202 207 206 184 216 223 235 239 241 239 240 238 238 242 233 232 240 244 247 244 239 260 257 165 188 226 239 243 247 273 272 291 301 281 297 299 314
200 195 204 206 202 194 192 199 203 203 207 211 213 214 208 213 234 230 242 246 251 246 252 250 239 230 230 236 235 237 243 232 234 232 220 240 237 233 248 254 273 295 296 274 271 286 306
174 185 197 204 197 199 213 218 214 216 218 220 217 220 222 233 239 251 229 227 234 236 237 239 223 216 213 215 223 243 244 236 237 244 255 247 241 239 234 235 267 316 291 264 297 292 304
179 173 172 182 187 190 194 211 216 219 217 210 214 218 228 233 235 243 242 244 242 227 209 220 218 217 208 207 220 228 232 234 246 254 262 251 261 262 246 256 277 297 287 289 292 285 274